Location: Walnut Hills Mobile Home Park
(34.0445°N, 117.8184°W)
Time: 02:28:37
(UTC+00:00)

Okean 1-7 Rocket - Pass Details

Date: 17 December 2025
Orbit: 610 x 643 km, 82.5° (Epoch: 15 January)

Event Time Altitude Azimuth Distance (km) Brightness Sun altitude
Rises 13:24:16 0° 184° (S) 2,924 7.2 -17.4°
Reaches altitude 10° 13:26:31 10° 184° (S) 2,015 6.3 -17.0°
Maximum altitude 13:30:59 87° 97° (E) 638 3.6 -16.1°
Drops below altitude 10° 13:35:27 10° 7° (N) 2,009 6.1 -15.2°
Sets 13:37:41 0° 7° (N) 2,914 6.9 -14.8°
